Regional Weather Roundup
Issued by NWS

Home | Current Version | Previous Version | Text Only | Print | Product List | Glossary Off
Versions: 1 2 3 4 5 6 7 8 9 10 11 12 13 14 15 16 17 18 19 20 21 22 23 24 25 26 27 28 29 30 31 32 33 34 35 36 37 38 39 40 41 42 43 44 45 46 47 48 49 50

000
ASUS43 KIND 200509
RWRIN

WEATHER ROUNDUP FOR INDIANA
NATIONAL WEATHER SERVICE INDIANAPOLIS IN
100 AM EDT SAT SEP 20 2014

NOTE: "FAIR" INDICATES FEW OR NO CLOUDS BELOW 12,000 FEET WITH NO
SIGNIFICANT WEATHER AND/OR OBSTRUCTIONS TO VISIBILITY.

* - STATION DOES NOT REPORT WEATHER SUCH AS PRECIPITATION OR FOG.

+ - STATION NOT QUALITY CONTROLLED BY THE NATIONAL WEATHER SERVICE.
    USE DATA WITH CAUTION...ESPECIALLY DEWPOINT AND RELATIVE
    HUMIDITY OBSERVATIONS.

INZ001>003-010>013-019-020-200600-
NORTHWEST INDIANA

CITY           SKY/WX    TMP DP  RH WIND       PRES   REMARKS
GARY /AIRPORT/ CLEAR     65  49  56 S8        29.96F
KNOX *+        CLEAR     56  48  74 S8        29.99F
LA PORTE +     PTCLDY    56  47  71 S7        29.99F
MICHIGAN CITY+ CLEAR     61  45  55 S8        29.97F
MONTICELLO +   CLEAR     58  51  77 S5        30.02F
RENSSELAER +   CLEAR     59  54  82 S6        30.01F
VALPARAISO     CLEAR     57  49  74 S8        29.99F

$$

LMZ046-743>745-200600-
SOUTHERN LAKE MICHIGAN

STATION/POSITION TIME  TEMP WIND        PRES
                       AIR  DIR/SP/G
                 (UTC) (F)  (DEG/KT/KT) (MB)
MICHIGAN CITY    0500   63  160/ 12/ 17   N/A

$$

INZ004-005-014>016-021>024-200600-
NORTH CENTRAL INDIANA

CITY           SKY/WX    TMP DP  RH WIND       PRES   REMARKS
GOSHEN         CLEAR     59  48  67 S8        30.01F
LOGANSPORT +   CLEAR     50  45  81 S6        30.04F
PERU/GRISSOM   CLEAR     54  52  94 S5        30.03F
ROCHESTER +    CLEAR     61  50  67 S5        30.02F
SOUTH BEND     CLEAR     61  47  59 S9        30.00F
WARSAW +       CLEAR     57  48  72 CALM      30.02F

$$

INZ006>009-017-018-025>027-200600-
NORTHEAST INDIANA

CITY           SKY/WX    TMP DP  RH WIND       PRES   REMARKS
ANGOLA *+      CLEAR     52  46  82 CALM      30.03F
AUBURN +       PTCLDY    52  46  82 CALM      30.04F
FORT WAYNE     MOCLDY    52  47  83 S5        30.05F
HUNTINGTON +   PTCLDY    51  49  92 CALM      30.04F

$$

INZ028-029-035-036-043>045-051>053-200600-
WEST CENTRAL INDIANA

CITY           SKY/WX    TMP DP  RH WIND       PRES   REMARKS
GREENCASTLE +  CLEAR     54  50  87 CALM      30.06S
LAFAYETTE      CLEAR     52  49  89 CALM      30.03F
TERRE HAUTE    CLEAR     51  48  89 CALM      30.05S

$$

INZ030>032-037>040-046>048-054>057-064-065-200600-
CENTRAL INDIANA

CITY           SKY/WX    TMP DP  RH WIND       PRES   REMARKS
CP ATTERBURY + CLEAR     52  50  93 CALM      30.07F FOG
FRANKFORT +    CLEAR    N/A N/A N/A SE3       30.06F
INDIANAPOLIS   PTCLDY    58  51  78 CALM      30.05F
-EAGLE CREEK   CLEAR     55  50  83 CALM      30.05F
KOKOMO *+      CLEAR     52  46  82 S8        30.05F
MARION +       CLEAR     52  47  83 S3        30.06F
MT COMFORT *+  PTCLDY    55  46  71 S5        30.07S
SHELBYVILLE    PTCLDY    57  50  77 S5        30.06F
ZIONSVILLE +   CLEAR     49  46  90 CALM      30.07S FOG

$$

INZ033-034-041-042-049-050-058-059-200600-
EAST CENTRAL INDIANA

CITY           SKY/WX    TMP DP  RH WIND       PRES   REMARKS
MUNCIE         CLEAR     58  49  72 S3        30.06F

$$

INZ060-061-067>069-081>083-085>088-200600-
SOUTHWEST INDIANA

CITY           SKY/WX    TMP DP  RH WIND       PRES   REMARKS
EVANSVILLE     CLEAR     62  57  83 CALM      30.06S
WASHINGTON +   CLEAR     55  55  97 S5        30.05S

$$

INZ062-063-066-070>080-084-089>092-200600-
SOUTH CENTRAL AND SOUTHEAST INDIANA

CITY           SKY/WX    TMP DP  RH WIND       PRES   REMARKS
BLOOMINGTON    CLEAR     54  52  93 CALM      30.06F
NORTH VERNON + PTCLDY    54  54 100 CALM      30.08
SEYMOUR +      PTCLDY    55  54  94 CALM      30.07

$$




USA.gov is the U.S. government's official web portal to all federal, state and local government web resources and services.